Location: Newark
(35.7833°N, 139.8000°E)
Time: 23:15:19
(UTC+00:00)

OTV 5 (USA 277) - Pass Details

Date: 28 September 2019
Orbit: 310 x 324 km, 54.5° (Epoch: 08 October)

Event Time Altitude Azimuth Distance (km) Brightness Sun altitude
Rises 19:30:14 0° 184° (S) 2,056 ? -13.6°
Reaches altitude 10° 19:33:00 10° 152° (SSE) 1,229 ? -13.1°
Maximum altitude 19:34:15 12° 125° (SE) 1,103 ? -12.8°
Drops below altitude 10° 19:35:30 10° 97° (E) 1,232 ? -12.6°
Sets 19:38:16 0° 66° (ENE) 2,067 ? -12.0°
